Regional Weather Roundup
Issued by NWS

Home | Current Version | Previous Version | Graphics & Text | Print | Product List | Glossary On
Versions: 1 2 3 4 5 6 7 8 9 10 11 12 13 14 15 16 17 18 19 20 21 22 23 24 25 26 27 28 29 30
000
ASUS45 KBOU 300807
RWRCO

WEATHER ROUNDUP FOR COLORADO
NATIONAL WEATHER SERVICE DENVER/BOULDER CO
200 AM MDT THU OCT 30 2014

NOTE: "FAIR" INDICATES FEW OR NO CLOUDS BELOW 12000 FEET WITH NO
SIGNIFICANT WEATHER AND/OR OBSTRUCTIONS TO VISIBILITY.

COZ001>005-013-030-031-300900-
...NORTHWEST COLORADO...

CITY           SKY/WX    TMP DP  RH WIND       PRES   REMARKS
CRAIG          MOCLDY    32  24  72 NE3       30.37R
HAYDEN         CLOUDY    36  21  55 E7        30.36R
MEEKER         CLEAR     32  23  69 CALM      30.37R
MOUNT WERNER   NOT AVBL
STEAMBOAT SPGS CLOUDY    33  24  71 CALM      30.37R
WALDEN         CLOUDY    34  21  60 CALM      30.37R
$$

COZ006>008-011-300900-
...WEST CENTRAL VALLEYS...

CITY           SKY/WX    TMP DP  RH WIND       PRES   REMARKS
GRAND JUNCTION CLEAR     39  19  44 SE8       30.31R
MONTROSE       CLEAR     36  21  54 S9        30.37R
EAGLE          CLEAR     30  21  69 CALM      30.41R
RIFLE          CLEAR     33  21  61 CALM      30.36R
DELTA          CLEAR     37  19  48 NE6       30.35S
NUCLA          CLEAR     39  16  38 E5        30.39R
$$

COZ017>023-064>068-300900-
...SOUTHWEST COLORADO...

CITY           SKY/WX    TMP DP  RH WIND       PRES   REMARKS
DURANGO        PTCLDY    32  21  64 NE3       30.33S
CORTEZ         CLEAR     32  18  56 NE7       30.32F WCI  26
PAGOSA SPRINGS PTCLDY    33  23  68 CALM      30.38S
TELLURIDE      CLEAR     37  13  38 SE6       30.47S
WOLF CREEK PAS PTCLDY    36  10  35 S6        30.54S
$$

COZ009-010-012-014-032>034-037-058>063-300900-
...CENTRAL COLORADO...

CITY           SKY/WX    TMP DP  RH WIND       PRES   REMARKS
ASPEN          CLEAR     29  18  63 SW7       30.39S WCI  22
BUENA VISTA    CLEAR     35  14  41 SE3       30.36R
COPPER MTN     CLEAR     34  16  47 W25G31    30.50R WCI  21
BERTHOUD PASS  FAIR      27  21  80 NW40G52   30.45R WCI   8
COTTONWOOD PAS CLEAR     41  10  28 CALM      30.41R
GUNNISON       CLEAR     25  10  54 CALM      30.43R
KREMMLING      PTCLDY    30  23  74 CALM        N/A
LEADVILLE      CLEAR     33  12  41 NE9       30.43R WCI  25
MONARCH PASS   CLEAR     30  12  47 W32       30.59S WCI  15
SALIDA         CLEAR     38  13  37 CALM      30.42R
SUNLIGHT       CLEAR     36  12  38 CALM      30.51S
WILKERSON PASS NOT AVBL
$$

COZ069>075-300900-
...SAN LUIS VALLEY/SANGRE DE CRISTO MOUNTAINS...

CITY           SKY/WX    TMP DP  RH WIND       PRES   REMARKS
ALAMOSA        MOCLDY    28  14  55 SW7       30.36R WCI  21
LA VETA PASS   PTCLDY    39  10  30 S10       30.42S
SAGUACHE       PTCLDY    36  12  38 N12       30.39R
$$

COZ035-036-038>040-300900-
...NORTHERN COLORADO FRONT RANGE...

CITY           SKY/WX    TMP DP  RH WIND       PRES   REMARKS
DENVER INTL AP PTCLDY    43  24  47 E5        30.25R
DMNS CITY PARK   N/A     44  24  45 S3        30.25S
AURORA         PTCLDY    48  23  37 SE5       30.27R
FRONT RANGE AP PTCLDY    45  28  53 NW5       30.26R
ERIE MUNI ARPT PTCLDY    39  27  62 CALM      30.24R
BOULDER MUN AP PTCLDY    45  23  42 S3        30.24R
CENTENNIAL     PTCLDY    47  22  37 SE8       30.27R
BROOMFIELD     PTCLDY    50  23  34 CALM      30.26R
FORT COLLINS   PTCLDY    48  27  43 N13       30.23S
LONGMONT       PTCLDY    42  28  56 CALM      30.25S
$$

COZ041-046-047-076>085-087-088-300900-
...PIKES PEAK/PALMER DIVIDE AND SOUTHERN FOOTHILLS...

CITY           SKY/WX    TMP DP  RH WIND       PRES   REMARKS
COLO. SPRINGS  PTCLDY    41  20  43 N8        30.27R
A. F. ACADEMY  CLEAR     33  20  59 N10       30.28R WCI  24
ELLICOTT       CLEAR     40  19  43 NE10      30.25R
FALCON         CLEAR     43  18  35 N7        30.30R
FORT CARSON    CLEAR     40  20  45 NW10      30.24S
LIMON          CLEAR     37  21  52 NW8       30.24R
MONUMENT HILL  CLEAR     37  18  44 E3        30.30R
TRINIDAD       PTCLDY    42  17  36 W12       30.23R
$$

COZ042>045-048>051-090-091-300900-
...NORTHEAST COLORADO...

CITY           SKY/WX    TMP DP  RH WIND       PRES   REMARKS
GREELEY ARPT   PTCLDY    50  25  37 N15G23    30.22R
AKRON          CLEAR     41  25  53 NW10      30.20R
BURLINGTON     CLEAR     42  23  46 NW10      30.18R
WRAY           CLEAR     40  25  56 W6        30.17R
STERLING       CLEAR     41  28  60 NE5       30.21R
HOLYOKE        CLEAR     43  28  56 W10       30.19R
FORT MORGAN    CLEAR     47  22  37 N14       30.22R
$$

COZ086-089-092>099-300900-
...SOUTHEAST COLORADO...

CITY           SKY/WX    TMP DP  RH WIND       PRES   REMARKS
PUEBLO         CLEAR     38  21  50 W6        30.21R
LA JUNTA       CLEAR     41  24  51 W7        30.19R
LAMAR          CLEAR     36  26  67 SW7       30.14R
SPRINGFIELD      N/A     44  30  57 N16       30.14R
$$



USA.gov is the U.S. government's official web portal to all federal, state and local government web resources and services.